Location: Deneb Observatory
(47.2267°N, 100.4953°W)
Time: 06:57:17
(UTC-05:00)

Amateur Radio Satellites - All Passes

Search period start: 24 October 2014 06:27
Search period end: 25 October 2014 06:27
Location: Deneb Observatory, 47.2267°N, 100.4953°W

Satellite Date Start Highest point End Downlink Frequencies (MHz)
Time Altitude Azimuth
Uosat F 24 Oct 06:37:06 06:42:10 75° 287° (WNW) 06:47:12 435.120 FM
Sapphire 24 Oct 06:39:13 06:44:13 37° 315° (NW) 06:49:16 437.095 MHz 1200 baud AX-25 AFSK
Hamsat 24 Oct 06:43:44 06:47:00 22° 93° (E) 06:50:15 145.90 MHz
JAS-2 24 Oct 06:49:26 06:56:56 51° 98° (E) 07:04:31 435.800 - 435.900 CW/SSB, 435.910 FM
PCSat 24 Oct 07:02:39 07:07:11 26° 321° (NW) 07:11:45 145.825 MHz
AO-7 24 Oct 07:10:59 07:19:06 60° 297° (WNW) 07:27:14 29.400 - 29.500 MHz
OPAL 24 Oct 07:27:19 07:30:06 15° 269° (W) 07:32:53 ?
STRAND 1 24 Oct 07:28:40 07:33:47 79° 73° (ENE) 07:38:58 ?
Saudisat 1A 24 Oct 07:41:52 07:43:26 12° 109° (ESE) 07:45:01 436.775 MHz
Uosat F 24 Oct 08:17:58 08:20:06 13° 306° (NW) 08:22:15 435.120 FM
Hamsat 24 Oct 08:19:11 08:23:06 39° 290° (WNW) 08:27:00 145.90 MHz
RS-15 24 Oct 08:22:00 08:33:09 82° 237° (WSW) 08:44:46 29.354 - 29.394 USB, Beacon 29.352 USB
Sapphire 24 Oct 08:27:00 08:29:17 13° 339° (NNW) 08:31:35 437.095 MHz 1200 baud AX-25 AFSK
SO-67 24 Oct 08:28:47 08:32:02 37° 98° (E) 08:35:16 435.3500 MHz FM
JAS-2 24 Oct 08:34:42 08:41:47 43° 296° (WNW) 08:49:03 435.800 - 435.900 CW/SSB, 435.910 FM
PCSat 24 Oct 08:51:43 08:52:37 10° 346° (NNW) 08:53:30 145.825 MHz
AO-7 24 Oct 09:05:15 09:10:17 18° 319° (NW) 09:15:19 29.400 - 29.500 MHz
STRAND 1 24 Oct 09:10:40 09:13:36 15° 272° (W) 09:16:32 ?
Saudisat 1A 24 Oct 09:17:54 09:22:18 88° 128° (SE) 09:26:44 436.775 MHz
SO-67 24 Oct 10:02:34 10:04:45 16° 295° (WNW) 10:06:55 435.3500 MHz FM
MaSat-1 24 Oct 10:12:45 10:15:28 74° 242° (WSW) 10:17:56 437.345 MHz
JAS-2 24 Oct 10:22:42 10:24:59 12° 317° (NW) 10:27:17 435.800 - 435.900 CW/SSB, 435.910 FM
Oscar 11 24 Oct 10:32:20 10:35:22 19° 91° (E) 10:38:23 145.825 FM, Beacon 2401.500 USB
HO-68 24 Oct 10:33:13 10:40:18 55° 101° (ESE) 10:47:19 435.675 MHz FM
RS-15 24 Oct 10:35:49 10:43:51 24° 259° (W) 10:52:10 29.354 - 29.394 USB, Beacon 29.352 USB
Saudisat 1A 24 Oct 10:59:14 11:02:28 20° 327° (NNW) 11:05:43 436.775 MHz
ZACube-1 24 Oct 11:19:36 11:23:07 24° 93° (E) 11:26:34 437.345 MHz
UKube-1 24 Oct 11:25:24 11:29:47 66° 102° (ESE) 11:34:06 145.840 MHz, 145.915 MHz
KITSAT 1 24 Oct 11:43:59 11:48:17 16° 99° (E) 11:52:35 435.175 FM
Sapphire 24 Oct 11:57:29 12:01:15 19° 32° (NNE) 12:04:59 437.095 MHz 1200 baud AX-25 AFSK
FUNcube-1 24 Oct 12:04:00 12:08:18 70° 102° (ESE) 12:12:28 145.950 - 145.970 MHz USB
Oscar 11 24 Oct 12:07:40 12:11:49 48° 289° (WNW) 12:15:57 145.825 FM, Beacon 2401.500 USB
PCSat 24 Oct 12:19:53 12:24:19 25° 38° (NE) 12:28:43 145.825 MHz
HO-68 24 Oct 12:21:21 12:27:45 36° 301° (WNW) 12:34:07 435.675 MHz FM
Oscar 10/S400 24 Oct 12:29:43 12:39:35 14° 148° (SSE) 12:48:10 145.825 - 145.975 CW/USB, Beacon 145.810 USB
Oscar 16 24 Oct 12:54:28 12:58:02 19° 59° (ENE) 13:01:37 437.025 USB, Beacon 2401.1428
ZACube-1 24 Oct 12:55:42 12:59:37 35° 292° (WNW) 13:03:26 437.345 MHz
AO-Echo 24 Oct 12:56:48 12:57:32 10° 51° (NE) 12:58:16 ?
UKube-1 24 Oct 13:02:48 13:05:29 16° 301° (WNW) 13:08:08 145.840 MHz, 145.915 MHz
SO-50 24 Oct 13:09:12 13:11:56 16° 110° (ESE) 13:14:43 436.795 FM
Uribyol 2 24 Oct 13:14:22 13:16:59 14° 54° (NE) 13:19:35 436.500 FM
JAS-1B 24 Oct 13:15:04 13:19:45 26° 60° (ENE) 13:24:21 435.800 - 435.900 CW/SSB
ITAMSAT 1 24 Oct 13:20:03 13:22:51 15° 55° (NE) 13:25:38 435.822 SSB
KITSAT 1 24 Oct 13:34:14 13:42:14 70° 119° (ESE) 13:50:16 435.175 FM
Gurwin Techsat 1B 24 Oct 13:38:16 13:40:06 12° 52° (NE) 13:41:56 435.225 FM
Sapphire 24 Oct 13:40:14 13:45:41 70° 54° (NE) 13:51:05 437.095 MHz 1200 baud AX-25 AFSK
FUNcube-1 24 Oct 13:41:50 13:44:07 14° 301° (WNW) 13:46:23 145.950 - 145.970 MHz USB
ISS 24 Oct 13:45:21 13:48:00 22° 139° (SE) 13:50:41 145.800 FM
Oscar 19 24 Oct 13:46:16 13:51:12 48° 69° (ENE) 13:56:08 437.125 CW, 437.150 USB
TMSAT-1 24 Oct 13:50:10 13:51:40 11° 52° (NE) 13:53:10 436.925 FM
PCSat 24 Oct 14:02:53 14:08:20 77° 239° (WSW) 14:13:44 145.825 MHz
AO-27 24 Oct 14:03:19 14:07:52 32° 64° (ENE) 14:12:28 436.795 MHz FM
Saudisat 1A 24 Oct 14:24:43 14:25:30 10° 17° (NNE) 14:26:17 436.775 MHz
AO-Echo 24 Oct 14:30:24 14:35:14 61° 71° (ENE) 14:40:16 ?
Oscar 16 24 Oct 14:31:43 14:36:52 70° 257° (WSW) 14:42:02 437.025 USB, Beacon 2401.1428
AO-7 24 Oct 14:32:10 14:37:24 19° 42° (NE) 14:42:38 29.400 - 29.500 MHz
UOSAT-12 24 Oct 14:36:38 14:38:13 12° 107° (ESE) 14:39:50 437.025 FM, 437.400 FM
SO-50 24 Oct 14:47:22 14:51:53 75° 309° (NW) 14:56:34 436.795 FM
Uribyol 2 24 Oct 14:50:24 14:55:38 80° 73° (ENE) 15:00:53 436.500 FM
ITAMSAT 1 24 Oct 14:56:20 15:01:33 84° 74° (ENE) 15:06:49 435.822 SSB
JAS-1B 24 Oct 15:04:28 15:10:13 51° 260° (W) 15:15:45 435.800 - 435.900 CW/SSB
Gurwin Techsat 1B 24 Oct 15:13:49 15:19:04 66° 72° (ENE) 15:24:21 435.225 FM
ISS 24 Oct 15:21:06 15:24:26 75° 337° (NNW) 15:27:47 145.800 FM
Sapphire 24 Oct 15:24:38 15:28:34 21° 253° (WSW) 15:32:29 437.095 MHz 1200 baud AX-25 AFSK
TMSAT-1 24 Oct 15:25:21 15:30:34 62° 71° (ENE) 15:35:49 436.925 FM
Oscar 19 24 Oct 15:26:33 15:30:46 25° 267° (W) 15:35:00 437.125 CW, 437.150 USB
KITSAT 1 24 Oct 15:30:47 15:38:14 39° 323° (NW) 15:45:44 435.175 FM
AO-27 24 Oct 15:42:24 15:47:17 40° 262° (W) 15:52:13 436.795 MHz FM
PCSat 24 Oct 15:48:43 15:50:49 12° 258° (WSW) 15:52:54 145.825 MHz
Saudisat 1A 24 Oct 16:02:35 16:06:30 30° 40° (NE) 16:10:24 436.775 MHz
AO-Echo 24 Oct 16:11:03 16:14:29 19° 270° (W) 16:17:59 ?
UOSAT-12 24 Oct 16:12:55 16:17:34 81° 126° (SE) 16:22:19 437.025 FM, 437.400 FM
Uosat F 24 Oct 16:15:36 16:19:58 31° 64° (ENE) 16:24:21 435.120 FM
AO-7 24 Oct 16:20:33 16:28:40 64° 64° (ENE) 16:36:49 29.400 - 29.500 MHz
SO-50 24 Oct 16:30:03 16:33:16 18° 331° (NNW) 16:36:33 436.795 FM
Uribyol 2 24 Oct 16:32:43 16:35:44 15° 272° (W) 16:38:46 436.500 FM
ITAMSAT 1 24 Oct 16:38:57 16:41:44 14° 272° (W) 16:44:31 435.822 SSB
Gurwin Techsat 1B 24 Oct 16:55:47 16:59:31 19° 270° (W) 17:03:17 435.225 FM
ISS 24 Oct 16:58:18 17:01:26 37° 357° (N) 17:04:35 145.800 FM
JAS-2 24 Oct 17:05:50 17:11:03 30° 58° (ENE) 17:16:49 435.800 - 435.900 CW/SSB, 435.910 FM
TMSAT-1 24 Oct 17:07:04 17:10:55 20° 269° (W) 17:14:48 436.925 FM
KITSAT 1 24 Oct 17:30:27 17:36:15 21° 351° (N) 17:42:03 435.175 FM
Hamsat 24 Oct 17:40:10 17:43:32 24° 65° (ENE) 17:46:53 145.90 MHz
Saudisat 1A 24 Oct 17:41:59 17:46:14 46° 239° (WSW) 17:50:27 436.775 MHz
OPAL 24 Oct 17:53:42 17:56:37 15° 91° (E) 17:59:30 ?
Uosat F 24 Oct 17:53:57 17:58:38 39° 262° (W) 18:03:22 435.120 FM
UOSAT-12 24 Oct 17:54:35 17:58:17 23° 327° (NNW) 18:02:02 437.025 FM, 437.400 FM
AO-7 24 Oct 18:14:39 18:21:56 34° 265° (W) 18:29:17 29.400 - 29.500 MHz
ISS 24 Oct 18:35:14 18:38:32 55° 17° (NNE) 18:41:49 145.800 FM
JAS-2 24 Oct 18:49:44 18:55:38 59° 261° (W) 19:02:24 435.800 - 435.900 CW/SSB, 435.910 FM
SO-67 24 Oct 19:04:46 19:07:26 21° 67° (ENE) 19:10:07 435.3500 MHz FM
Hamsat 24 Oct 19:15:25 19:19:19 36° 263° (W) 19:23:13 145.90 MHz
HO-68 24 Oct 19:21:52 19:25:27 15° 44° (NE) 19:29:03 435.675 MHz FM
KITSAT 1 24 Oct 19:28:28 19:34:54 25° 21° (NNE) 19:41:18 435.175 FM
OPAL 24 Oct 19:31:05 19:36:04 74° 290° (WNW) 19:40:59 ?
STRAND 1 24 Oct 19:36:55 19:40:48 21° 92° (E) 19:44:39 ?
UOSAT-12 24 Oct 19:39:47 19:40:12 10° 351° (N) 19:40:38 437.025 FM, 437.400 FM
SO-50 24 Oct 19:56:05 19:58:29 14° 21° (NNE) 20:00:54 436.795 FM
ISS 24 Oct 20:12:03 20:15:09 36° 216° (SW) 20:18:14 145.800 FM
AO-40 24 Oct 20:15:11 23:22:16 29° 196° (SSW) 04:05:58 Beacon 2401.320
SO-67 24 Oct 20:37:21 20:40:18 26° 265° (W) 20:43:17 435.3500 MHz FM
UKube-1 24 Oct 20:51:02 20:52:30 12° 56° (NE) 20:53:58 145.840 MHz, 145.915 MHz
HO-68 24 Oct 21:04:45 21:11:42 57° 65° (ENE) 21:18:42 435.675 MHz FM
OPAL 24 Oct 21:12:00 21:14:07 13° 309° (NW) 21:16:13 ?
STRAND 1 24 Oct 21:15:17 21:20:22 58° 290° (WNW) 21:25:23 ?
UOSAT-12 24 Oct 21:20:53 21:22:33 12° 16° (NNE) 21:24:13 437.025 FM, 437.400 FM
KITSAT 1 24 Oct 21:24:07 21:32:07 60° 48° (NE) 21:40:04 435.175 FM
FUNcube-1 24 Oct 21:30:07 21:31:42 12° 57° (ENE) 21:33:18 145.950 - 145.970 MHz USB
Oscar 11 24 Oct 21:30:24 21:33:47 23° 64° (ENE) 21:37:09 145.825 FM, Beacon 2401.500 USB
SO-50 24 Oct 21:35:45 21:40:19 41° 43° (NE) 21:44:55 436.795 FM
ZACube-1 24 Oct 22:18:41 22:22:43 32° 67° (ENE) 22:26:43 437.345 MHz
UKube-1 24 Oct 22:23:37 22:27:58 85° 75° (ENE) 22:32:22 145.840 MHz, 145.915 MHz
RS-15 24 Oct 22:49:21 22:59:36 48° 112° (ESE) 23:09:48 29.354 - 29.394 USB, Beacon 29.352 USB
HO-68 24 Oct 22:53:26 22:59:45 33° 265° (W) 23:06:07 435.675 MHz FM
STRAND 1 24 Oct 22:58:16 22:58:29 10° 309° (NW) 22:58:42 ?
UOSAT-12 24 Oct 22:59:59 23:04:13 31° 39° (NE) 23:08:23 437.025 FM, 437.400 FM
FUNcube-1 24 Oct 23:02:47 23:07:22 82° 75° (ENE) 23:11:54 145.950 - 145.970 MHz USB
Oscar 11 24 Oct 23:05:38 23:09:44 41° 262° (W) 23:13:51 145.825 FM, Beacon 2401.500 USB
SO-50 24 Oct 23:16:27 23:20:51 35° 242° (WSW) 23:25:16 436.795 FM
KITSAT 1 24 Oct 23:19:56 23:27:14 39° 249° (WSW) 23:34:32 435.175 FM
MaSat-1 24 Oct 23:53:22 23:55:45 15° 107° (ESE) 23:58:01 437.345 MHz
ZACube-1 24 Oct 23:55:00 23:59:05 31° 264° (W) 00:03:08 437.345 MHz
UKube-1 25 Oct 00:03:41 00:04:47 11° 272° (W) 00:05:52 145.840 MHz, 145.915 MHz
UOSAT-12 25 Oct 00:40:00 00:44:35 50° 239° (WSW) 00:49:04 437.025 FM, 437.400 FM
FUNcube-1 25 Oct 00:42:32 00:44:19 12° 272° (W) 00:46:05 145.950 - 145.970 MHz USB
RS-15 25 Oct 01:00:54 01:11:42 62° 317° (NW) 01:22:37 29.354 - 29.394 USB, Beacon 29.352 USB
Oscar 10/S400 25 Oct 01:08:59 02:06:02 24° 232° (SW) 05:02:39 145.825 - 145.975 CW/USB, Beacon 145.810 USB
MaSat-1 25 Oct 01:27:08 01:31:06 55° 302° (WNW) 01:34:41 437.345 MHz
Oscar 19 25 Oct 01:56:29 01:58:44 13° 87° (E) 02:00:58 437.125 CW, 437.150 USB
AO-Echo 25 Oct 02:35:23 02:38:50 17° 89° (E) 02:42:16 ?
Oscar 16 25 Oct 02:40:31 02:45:07 32° 96° (E) 02:49:41 437.025 USB, Beacon 2401.1428
JAS-1B 25 Oct 02:42:53 02:48:55 36° 97° (E) 02:55:56 435.800 - 435.900 CW/SSB
Uribyol 2 25 Oct 03:00:45 03:04:48 22° 92° (E) 03:08:48 436.500 FM
ITAMSAT 1 25 Oct 03:06:44 03:10:55 24° 93° (E) 03:15:03 435.822 SSB
RS-15 25 Oct 03:17:13 03:26:46 33° 349° (N) 03:36:30 29.354 - 29.394 USB, Beacon 29.352 USB
Gurwin Techsat 1B 25 Oct 03:27:40 03:31:36 21° 91° (E) 03:35:30 435.225 FM
Oscar 19 25 Oct 03:33:39 03:38:48 90° 288° (WNW) 03:43:55 437.125 CW, 437.150 USB
TMSAT-1 25 Oct 03:38:54 03:42:41 19° 90° (E) 03:46:26 436.925 FM
AO-27 25 Oct 03:51:48 03:56:59 58° 101° (E) 04:02:07 436.795 MHz FM
AO-Echo 25 Oct 04:12:49 04:18:08 74° 287° (WNW) 04:23:26 ?
Oscar 16 25 Oct 04:19:49 04:24:31 37° 294° (WNW) 04:29:11 437.025 USB, Beacon 2401.1428
AO-7 25 Oct 04:20:33 04:25:00 15° 85° (E) 04:29:26 29.400 - 29.500 MHz
Sapphire 25 Oct 04:25:35 04:30:21 33° 112° (ESE) 04:35:09 437.095 MHz 1200 baud AX-25 AFSK
JAS-1B 25 Oct 04:33:30 04:39:41 50° 293° (WNW) 04:46:59 435.800 - 435.900 CW/SSB
Uribyol 2 25 Oct 04:39:31 04:44:37 55° 290° (WNW) 04:49:40 436.500 FM
ITAMSAT 1 25 Oct 04:45:37 04:50:42 52° 291° (WNW) 04:55:45 435.822 SSB
PCSat 25 Oct 04:47:30 04:52:44 52° 116° (ESE) 04:58:00 145.825 MHz
Gurwin Techsat 1B 25 Oct 05:06:44 05:12:00 61° 289° (WNW) 05:17:13 435.225 FM
OPAL 25 Oct 05:10:42 05:15:30 42° 65° (ENE) 05:20:16 ?
Oscar 19 25 Oct 05:14:35 05:17:26 15° 304° (NW) 05:20:16 437.125 CW, 437.150 USB
TMSAT-1 25 Oct 05:17:48 05:23:04 65° 289° (WNW) 05:28:18 436.925 FM
AO-27 25 Oct 05:32:03 05:36:07 23° 300° (WNW) 05:40:09 436.795 MHz FM
RS-15 25 Oct 05:32:54 05:42:59 38° 23° (NNE) 05:53:20 29.354 - 29.394 USB, Beacon 29.352 USB
AO-Echo 25 Oct 05:53:34 05:56:01 13° 306° (NW) 05:58:28 ?
JAS-2 25 Oct 05:55:24 06:01:25 24° 88° (E) 06:07:27 435.800 - 435.900 CW/SSB, 435.910 FM
Uosat F 25 Oct 05:58:02 06:02:58 50° 100° (E) 06:07:52 435.120 FM
Sapphire 25 Oct 06:08:25 06:13:38 46° 311° (NW) 06:18:53 437.095 MHz 1200 baud AX-25 AFSK
